TimeEDT,TemperatureF,Dew PointF,Humidity,Sea Level PressureIn,VisibilityMPH,Wind Direction,Wind SpeedMPH,Gust SpeedMPH,PrecipitationIn,Events,Conditions,WindDirDegrees,DateUTC
12:53 AM,75.9,75.0,97,30.01,10.0,Calm,Calm,-,N/A,,Clear,0,2012-10-06 04:53:00
1:53 AM,77.0,75.0,94,30.00,10.0,Calm,Calm,-,N/A,,Clear,0,2012-10-06 05:53:00
2:53 AM,75.9,73.9,94,29.98,10.0,NW,3.5,-,N/A,,Clear,320,2012-10-06 06:53:00
3:33 AM,75.2,75.2,100,29.96,10.0,NE,4.6,-,N/A,,Scattered Clouds,40,2012-10-06 07:33:00
3:36 AM,75.2,75.2,100,29.96,10.0,NE,4.6,-,N/A,,Mostly Cloudy,50,2012-10-06 07:36:00
3:53 AM,77.0,75.0,94,29.97,10.0,North,6.9,-,N/A,,Overcast,10,2012-10-06 07:53:00
4:22 AM,75.2,73.4,94,29.95,10.0,North,5.8,-,N/A,,Partly Cloudy,10,2012-10-06 08:22:00
4:53 AM,77.0,75.0,94,29.97,10.0,North,3.5,-,N/A,,Partly Cloudy,10,2012-10-06 08:53:00
5:53 AM,75.9,73.0,91,29.97,10.0,Calm,Calm,-,N/A,,Clear,0,2012-10-06 09:53:00
6:53 AM,75.0,73.9,96,29.97,10.0,Calm,Calm,-,N/A,,Clear,0,2012-10-06 10:53:00
7:53 AM,75.0,73.9,96,29.98,8.0,Calm,Calm,-,N/A,,Clear,0,2012-10-06 11:53:00
8:53 AM,79.0,75.9,90,29.99,10.0,Calm,Calm,-,N/A,,Clear,0,2012-10-06 12:53:00
9:53 AM,82.0,75.9,82,30.00,10.0,Variable,3.5,-,N/A,,Scattered Clouds,0,2012-10-06 13:53:00
10:24 AM,80.6,75.2,84,29.99,10.0,Calm,Calm,-,N/A,,Scattered Clouds,0,2012-10-06 14:24:00
10:53 AM,82.9,75.0,77,30.00,10.0,Calm,Calm,-,N/A,,Partly Cloudy,0,2012-10-06 14:53:00
11:53 AM,84.9,71.1,63,29.99,10.0,Variable,5.8,-,N/A,,Clear,0,2012-10-06 15:53:00
12:53 PM,87.1,72.0,61,29.96,10.0,Calm,Calm,-,N/A,,Scattered Clouds,0,2012-10-06 16:53:00
1:53 PM,88.0,70.0,55,29.94,10.0,West,8.1,-,N/A,,Scattered Clouds,280,2012-10-06 17:53:00
2:53 PM,89.1,70.0,53,29.91,10.0,NNW,8.1,-,N/A,,Clear,330,2012-10-06 18:53:00
3:53 PM,87.1,70.0,57,29.90,10.0,North,8.1,-,N/A,,Partly Cloudy,10,2012-10-06 19:53:00
4:53 PM,82.0,70.0,67,29.91,10.0,ENE,15.0,-,N/A,,Mostly Cloudy,60,2012-10-06 20:53:00
5:29 PM,80.6,71.6,74,29.91,10.0,NNE,13.8,23.0,N/A,Thunderstorm,Thunderstorm,20,2012-10-06 21:29:00
5:42 PM,75.2,71.6,89,29.93,7.0,NNE,17.3,28.8,0.02,Rain-Thunderstorm,Thunderstorms and Rain,30,2012-10-06 21:42:00
5:53 PM,73.9,70.0,87,29.94,7.0,NNE,12.7,20.7,0.03,Rain-Thunderstorm,Light Thunderstorms and Rain,30,2012-10-06 21:53:00
6:11 PM,73.4,69.8,88,29.92,10.0,NE,12.7,-,0.00,Thunderstorm,Thunderstorm,50,2012-10-06 22:11:00
7:16 PM,73.4,69.8,88,29.92,10.0,SE,6.9,-,N/A,,Scattered Clouds,140,2012-10-06 23:16:00
7:53 PM,73.9,68.0,82,29.96,10.0,Calm,Calm,-,N/A,,Scattered Clouds,0,2012-10-06 23:53:00
8:53 PM,73.9,69.1,85,29.97,10.0,Calm,Calm,-,N/A,,Clear,0,2012-10-07 00:53:00
9:53 PM,75.0,70.0,84,29.98,10.0,Calm,Calm,-,N/A,,Clear,0,2012-10-07 01:53:00
10:53 PM,75.0,70.0,84,29.98,10.0,Calm,Calm,-,N/A,,Scattered Clouds,0,2012-10-07 02:53:00
11:53 PM,73.9,70.0,87,29.98,10.0,Calm,Calm,-,N/A,,Scattered Clouds,0,2012-10-07 03:53:00